Погода в Наифару

Мальдивы     5°26′35″N   73°21′58″E
темп.,
°C
ветер,
м/с
пор.,
м/с
влажн.,
%
обл.,
%
осадки,
мм/ч
давл.,
гПа
погр.,
м
10 августа, ср
ср1023:00+27зсз588499 0.3 1009736
02:00+27з6779100 0.3 1008793
05:00+27з45797 0.3 1008701
08:00+27з568030 0.0 1009626
11:00+27з458096 0.0 1009659
14:00+27з348080 0.1 1007493
17:00+28зсз458096 0.1 1007635
20:00+27зсз458372 0.0 1008575
11 августа, чт
чт1123:00+27зсз46835 0.0 1009638
02:00+27зсз568438 0.9 1008580
05:00+27з458338 1.9 1008433
08:00+27з4581100 0.6 1010515
11:00+27з3479100 0.6 1010588
14:00+28з337787 0.0 1008594
17:00+28з337723 0.0 1008624
20:00+27з23795 0.3 1009349
12 августа, пт
пт1223:00+27зюз237958 0.8 1010362
02:00+27зюз228093 0.4 1009291
05:00+27зюз338026 0.8 1009371
08:00+27зюз347790 0.0 1011487
11:00+27зюз337611 0.0 1010514
14:00+27зсз33756 0.0 1008618
17:00+28зсз337417 0.0 1008669
20:00+27зсз237887 0.0 1010608
13 августа, сб
сб1323:00+27сз227874 0.0 1011473
02:00+26зсз2282100 0.8 1009125
05:00+27з338098 0.9 1009554
08:00+26з3382100 1.2 1011203
11:00+27з337973 2.1 1010471
14:00+27з3477100 0.1 1008593
17:00+27з337594 0.1 1008643
20:00+27з2276100 0.0 1010526
14 августа, вс
вс1423:00+27сз2377100 0.0 1011572
02:00+27сз448062 0.1 1008631
05:00+27зсз3480100 1.1 1008575
08:00+27зсз227914 0.3 1011330
11:00+27сз227922 0.9 1011418
14:00+27сз3377100 0.0 1009626
17:00+27ссз3375100 0.0 1009708
20:00+27ссз2377100 0.0 1010635